[[{"header":{"parameterUnit":"m.s-1","parameterCategory":2,"la1":30.2991,"la2":30.254,"lo1":-89.0895,"lo2":-89.0444,"dy":0.0017,"dx":0.0017,"nx":28,"ny":28,"refTime":"2025-06-11T09:00:00:Z","depth":"0","parameterNumber":2,"parameterNumberName":"U-component_of_CURRENTS"},"data":[0,0,0,0,0,0,0,0,0,0,0,0,0,0,0,0,0,0,0,0,0,0,0,0,0,0,0,0,0,0,0,0,0,0,0,0,0,0,0,0,0,0,0,0,0,0,0,0,0,0,0,0,0,0,0,0,0,0,-0.2628,-0.2632,0,-0.3033,-0.3039,-0.3044,-0.3354,-0.3356,-0.3358,-0.336,-0.3384,-0.3383,-0.3382,0,0,0,0,0,0,0,0,0,0,0,0,0,-0.2412,-0.2413,-0.2628,-0.2632,-0.2636,-0.3033,-0.3039,-0.3045,-0.3354,-0.3356,-0.3359,-0.3361,-0.3385,-0.3383,-0.3382,0,0,0,0,0,0,0,0,0,0,0,0,0,-0.2637,-0.2413,-0.2627,-0.2832,-0.2854,-0.3031,-0.3039,-0.3047,-0.3353,-0.3356,-0.336,-0.3363,-0.3385,-0.3383,-0.3381,-0.3305,0,0,-0.3375,-0.3374,0,0,0,0,0,0,0,0,-0.2624,-0.2646,-0.2798,-0.2818,-0.2843,-0.3139,-0.2972,-0.3112,-0.3352,-0.3172,-0.336,-0.3364,-0.3259,-0.3268,-0.3354,-0.3306,-0.3307,-0.3375,-0.3374,-0.3373,-0.3372,0,0,0,0,0,0,0,-0.2607,-0.2632,-0.2797,-0.2802,-0.2829,-0.3003,-0.3037,-0.3004,-0.3192,-0.3188,-0.321,-0.3241,-0.327,-0.3356,-0.3356,-0.3307,-0.3375,-0.3373,-0.3372,-0.3371,-0.3168,-0.3164,0,0,0,0,0,0,-0.2522,-0.2614,-0.2784,-0.2808,-0.273,-0.3002,-0.3041,-0.3048,-0.3202,-0.3229,-0.3237,-0.3253,-0.3358,-0.3358,-0.3357,-0.3247,-0.3373,-0.3371,-0.337,-0.3173,-0.3167,-0.3163,0,0,0,0,0,0,-0.2515,-0.2531,-0.2767,-0.2717,-0.2758,-0.2999,-0.3007,-0.3054,-0.3144,-0.3242,-0.3264,-0.3278,-0.336,-0.336,-0.335,-0.325,-0.337,-0.3368,-0.3177,-0.3171,-0.3165,-0.304,0,0,0,0,0,0,-0.2506,-0.2526,-0.2512,-0.2709,-0.2757,-0.282,-0.3005,-0.3059,-0.3153,-0.3179,-0.3281,-0.329,-0.3363,-0.3353,-0.3348,-0.3249,-0.3367,-0.3183,-0.3175,-0.3167,-0.3049,-0.303,-0.3013,0,0,0,0,0,-0.2497,-0.2479,-0.2508,-0.253,-0.2725,-0.2816,-0.2855,-0.3048,-0.3151,-0.315,-0.3263,-0.3287,-0.3297,-0.3349,-0.3344,-0.3242,-0.3187,-0.3177,-0.3168,-0.3057,-0.3034,-0.3014,0,0,0,0,0,0,-0.2409,-0.2513,-0.255,-0.257,-0.2646,-0.2864,-0.2905,-0.3017,-0.3122,-0.3145,-0.326,-0.3273,-0.3217,-0.3236,-0.3291,-0.3155,-0.323,-0.322,-0.3147,-0.3126,-0.3108,-0.3105,-0.3365,0,0,0,0,0,-0.2359,-0.236,-0.2473,-0.2483,-0.2506,-0.2688,-0.2758,-0.2863,-0.2981,-0.304,-0.3119,-0.3168,-0.317,-0.3161,-0.3166,-0.3092,-0.311,-0.301,-0.2992,-0.2977,-0.2967,-0.2952,-0.2933,-0.3132,-0.3132,-0.3132,0,0,-0.2336,-0.2386,-0.2395,-0.246,-0.2552,-0.2588,-0.2741,-0.2806,-0.2845,-0.3001,-0.3063,-0.31,-0.3137,-0.3091,-0.3059,-0.3097,-0.2918,-0.2965,-0.2953,-0.2951,-0.294,-0.2921,-0.2905,-0.3126,-0.3127,-0.3128,0,0,-0.2292,-0.2308,-0.2297,-0.2336,-0.2413,-0.2504,-0.2495,-0.2655,-0.2722,-0.2748,-0.2878,-0.2866,-0.2884,-0.2913,-0.2921,-0.2781,-0.2827,-0.2757,-0.2664,-0.2648,-0.2633,-0.262,-0.258,-0.2565,-0.2747,-0.2746,-0.2746,0,-0.2259,-0.2266,-0.2307,-0.2309,-0.2358,-0.2444,-0.2463,-0.2514,-0.2657,-0.269,-0.2721,-0.2789,-0.2791,-0.2772,-0.2737,-0.2735,-0.2754,-0.2754,-0.2629,-0.2616,-0.2605,-0.2569,-0.2554,-0.2739,-0.274,-0.2741,-0.2741,0,-0.222,-0.2226,-0.2217,-0.2239,-0.2272,-0.2288,-0.2345,-0.2365,-0.2429,-0.2505,-0.2489,-0.2528,-0.2585,-0.2537,-0.2597,-0.2512,-0.2557,-0.2616,-0.2696,-0.2579,-0.2546,-0.2532,-0.2729,-0.2731,-0.2733,-0.2735,0,0,-0.2155,-0.2188,-0.2184,-0.2206,-0.2242,-0.2278,-0.2261,-0.2302,-0.2335,-0.2344,-0.2387,-0.2331,-0.2383,-0.2393,-0.2439,-0.2394,-0.2293,-0.2467,-0.247,-0.2448,-0.2259,-0.2142,-0.2117,-0.2366,-0.2364,-0.2362,-0.2256,0,-0.2121,-0.2125,-0.215,-0.2163,-0.2178,-0.2226,-0.2226,-0.2255,-0.2282,-0.2317,-0.2285,-0.2323,-0.2317,-0.2355,-0.2295,-0.2334,-0.226,-0.2316,-0.2358,-0.2358,-0.2286,-0.2097,-0.1987,-0.1872,-0.2243,-0.2241,-0.224,0,-0.2072,-0.2095,-0.2101,-0.2162,-0.2172,-0.2182,-0.2227,-0.2246,-0.2259,-0.2286,-0.2283,-0.2311,-0.2252,-0.2266,-0.2189,-0.2249,-0.222,-0.2208,-0.2207,-0.2137,-0.2215,-0.2053,-0.1834,-0.1835,-0.222,-0.2221,-0.2223,0,-0.2025,-0.2063,-0.2078,-0.2093,-0.2152,-0.2166,-0.2207,-0.2237,-0.228,-0.2293,-0.2326,-0.2274,-0.2266,-0.2218,-0.2147,-0.2202,-0.205,-0.2139,-0.1982,-0.1975,-0.1901,-0.189,-0.1703,-0.2035,-0.2036,-0.2036,-0.2036,0,-0.1981,-0.1991,-0.2061,-0.2066,-0.2121,-0.2157,-0.221,-0.2247,-0.2294,-0.2287,-0.2327,-0.2269,-0.2258,-0.2174,-0.2126,-0.197,-0.2025,-0.1905,-0.1917,-0.1845,-0.1831,-0.185,-0.1905,-0.2032,-0.2033,-0.2034,-0.2034,0,-0.1902,-0.1946,-0.1985,-0.2057,-0.2097,-0.2138,-0.2263,-0.2299,-0.234,-0.2331,-0.234,-0.2284,-0.214,-0.2099,-0.1986,-0.1924,-0.1768,-0.1749,-0.1638,-0.1635,-0.1502,-0.1555,-0.1399,-0.1361,-0.1571,-0.1567,-0.1564,0,-0.1856,-0.1855,-0.1977,-0.2052,-0.2089,-0.2177,-0.2243,-0.2325,-0.2345,-0.2266,-0.2233,-0.2117,-0.1872,-0.1688,-0.1629,-0.1509,-0.1574,-0.1369,-0.1417,-0.1402,-0.1474,-0.1542,-0.1529,-0.1267,-0.1262,-0.1257,-0.1254,0,-0.1782,-0.1822,-0.1889,-0.2035,-0.2132,-0.2181,-0.2247,-0.2259,-0.2253,-0.2146,-0.1844,-0.1613,-0.1464,-0.1195,-0.1153,-0.1128,-0.1334,-0.1271,-0.1295,-0.1205,-0.123,-0.1232,-0.1436,-0.1214,-0.1218,-0.1221,-0.1223,-0.1225,-0.174,-0.1812,-0.1925,-0.205,-0.2137,-0.2087,-0.2005,-0.198,-0.1829,-0.152,-0.1406,-0.0949,-0.0767,-0.0641,-0.0726,-0.0868,-0.0987,-0.0881,-0.0941,-0.1007,-0.0958,-0.1033,-0.0809,-0.0811,-0.0812,-0.0814,-0.0815,0,-0.1736,-0.1831,-0.1946,-0.203,-0.1993,-0.2042,-0.194,-0.1737,-0.1373,-0.1113,-0.0711,-0.0186,-0.0061,-0.0181,-0.0397,-0.0509,-0.0615,-0.0602,-0.07,-0.0703,-0.078,-0.0753,-0.0458,-0.0458,-0.0458,-0.0458,-0.0458,-0.0458,-0.1759,-0.1886,-0.1961,-0.1883,-0.1846,-0.16,-0.1433,-0.1116,-0.0858,-0.0264,0.0101,0.0311,0.0337,0.0074,-0.0288,-0.0406,-0.0498,-0.0491,-0.0575,-0.0676,-0.0709,-0.0741,-0.0724,-0.0428,-0.0428,-0.0454,-0.0454,-0.0455]},{"header":{"parameterUnit":"m.s-1","parameterCategory":2,"la1":30.2991,"la2":30.254,"lo1":-89.0895,"lo2":-89.0444,"dy":0.0017,"dx":0.0017,"nx":28,"ny":28,"refTime":"2025-06-11T09:00:00:Z","depth":"0","parameterNumber":3,"parameterNumberName":"V-component_of_CURRENTS"},"data":[0,0,0,0,0,0,0,0,0,0,0,0,0,0,0,0,0,0,0,0,0,0,0,0,0,0,0,0,0,0,0,0,0,0,0,0,0,0,0,0,0,0,0,0,0,0,0,0,0,0,0,0,0,0,0,0,0,0,-0.0572,-0.0571,0,-0.0362,-0.0359,-0.0356,-0.0175,-0.0174,-0.0173,-0.0172,-0.0024,-0.0021,-0.0018,0,0,0,0,0,0,0,0,0,0,0,0,0,-0.063,-0.063,-0.0572,-0.057,-0.0569,-0.0363,-0.0359,-0.0355,-0.0175,-0.0174,-0.0173,-0.0171,-0.0025,-0.0022,-0.0018,0,0,0,0,0,0,0,0,0,0,0,0,0,-0.0521,-0.063,-0.0572,-0.0462,-0.0451,-0.0363,-0.0359,-0.0354,-0.0175,-0.0174,-0.0172,-0.0171,-0.0026,-0.0022,-0.0017,-0.0021,0,0,-0.0004,-0.0002,0,0,0,0,0,0,0,0,-0.0527,-0.0518,-0.048,-0.047,-0.0457,-0.0303,-0.0325,-0.0249,-0.0176,-0.0269,-0.0172,-0.017,-0.0131,-0.0118,-0.0066,-0.0014,-0.0007,-0.0003,-0.0001,0.0001,0.0002,0,0,0,0,0,0,0,-0.0535,-0.0525,-0.0478,-0.0479,-0.0465,-0.036,-0.0343,-0.0308,-0.0204,-0.026,-0.0249,-0.0244,-0.0124,-0.007,-0.0061,-0.0005,-0.0004,0.0,0.0003,0.0005,0.0159,0.016,0,0,0,0,0,0,-0.0595,-0.0533,-0.0485,-0.0473,-0.0502,-0.0362,-0.0342,-0.0345,-0.0202,-0.0182,-0.0246,-0.0237,-0.0078,-0.0067,-0.0056,-0.0047,0.0001,0.0005,0.0008,0.0158,0.0159,0.0161,0,0,0,0,0,0,-0.0597,-0.0593,-0.0493,-0.0506,-0.0487,-0.0365,-0.0367,-0.0342,-0.0289,-0.0193,-0.017,-0.0221,-0.0077,-0.0062,-0.0002,-0.0041,0.0007,0.0011,0.0156,0.0158,0.016,-0.0035,0,0,0,0,0,0,-0.06,-0.0595,-0.0605,-0.0511,-0.0489,-0.0457,-0.0369,-0.0339,-0.0294,-0.0279,-0.0166,-0.0149,-0.0074,-0.0009,0.0002,-0.0034,0.0015,0.0154,0.0157,0.016,-0.003,-0.004,-0.0048,0,0,0,0,0,-0.0603,-0.0619,-0.0607,-0.06,-0.0511,-0.0459,-0.0437,-0.0336,-0.0295,-0.028,-0.0184,-0.0152,0.0017,-0.0006,0.0008,-0.0028,0.0153,0.0156,0.0159,-0.0026,-0.0038,-0.0048,0,0,0,0,0,0,-0.0633,-0.0601,-0.0585,-0.0588,-0.0543,-0.0433,-0.0406,-0.0355,-0.0264,-0.0246,-0.0148,-0.0125,-0.0083,-0.0014,-0.0041,0.0038,0.0094,0.01,-0.0051,-0.0061,-0.007,-0.0074,0.0019,0,0,0,0,0,-0.0659,-0.0668,-0.062,-0.0621,-0.0607,-0.0516,-0.048,-0.0424,-0.0341,-0.0297,-0.0223,-0.0129,-0.0059,-0.003,0.0048,0.0068,0.0142,0.0068,0.0059,0.005,0.0065,0.0139,0.0135,0.0171,0.0171,0.0171,0,0,-0.067,-0.0656,-0.0658,-0.063,-0.0578,-0.0557,-0.0486,-0.0447,-0.0419,-0.0304,-0.024,-0.0169,-0.0054,-0.001,0.0014,0.0036,0.0079,0.0054,0.0045,0.0066,0.0141,0.0137,0.0133,0.0174,0.0173,0.0173,0,0,-0.0694,-0.0691,-0.0703,-0.0679,-0.064,-0.0589,-0.0596,-0.0512,-0.0463,-0.0412,-0.0312,-0.026,-0.0154,-0.0083,-0.0032,-0.0043,0.0031,-0.0018,-0.0082,-0.0014,-0.0017,-0.002,0.0045,0.0051,-0.0027,-0.0028,-0.0028,0,-0.0707,-0.0726,-0.0694,-0.0696,-0.0688,-0.0619,-0.0624,-0.0564,-0.0469,-0.0444,-0.0411,-0.0246,-0.0185,-0.0117,-0.0112,-0.0074,-0.0009,-0.0074,-0.0033,-0.0033,-0.0032,0.0036,0.0044,-0.0037,-0.0036,-0.0035,-0.0034,0,-0.0734,-0.075,-0.0754,-0.0745,-0.0729,-0.0726,-0.0671,-0.0641,-0.0595,-0.0534,-0.0469,-0.0367,-0.0269,-0.0253,-0.019,-0.0152,-0.0101,-0.0063,-0.003,-0.0049,0.0026,0.0037,-0.005,-0.0047,-0.0044,-0.0042,0,0,-0.0761,-0.0776,-0.0777,-0.0822,-0.0766,-0.0783,-0.0733,-0.0696,-0.0683,-0.0595,-0.0559,-0.046,-0.041,-0.0344,-0.0273,-0.0219,-0.0191,-0.0149,-0.0141,-0.0126,-0.0033,-0.0003,0.0014,-0.0153,-0.0151,-0.015,0.0006,0,-0.0793,-0.0853,-0.0826,-0.0888,-0.0926,-0.0867,-0.0843,-0.0797,-0.0729,-0.0673,-0.0568,-0.0504,-0.0441,-0.0417,-0.0352,-0.0207,-0.0162,-0.0235,0.0024,0.0032,0.0026,0.0028,0.0108,0.0254,0.0018,0.002,0.0021,0,-0.0821,-0.0878,-0.0946,-0.1023,-0.1032,-0.1052,-0.1046,-0.1019,-0.0894,-0.0837,-0.0734,-0.0612,-0.05,-0.0458,-0.0241,-0.0285,-0.0178,-0.0078,-0.0069,0.0043,0.0085,0.0249,0.0286,0.0362,0.0041,0.0039,0.0038,0,-0.0903,-0.0971,-0.1056,-0.1074,-0.1113,-0.1151,-0.1174,-0.1083,-0.104,-0.0943,-0.0846,-0.0712,-0.0582,-0.045,-0.0214,-0.0228,0.0036,0.0039,0.0166,0.017,0.0337,0.0352,0.0449,0.0167,0.0166,0.0166,0.0165,0,-0.096,-0.1037,-0.1132,-0.1189,-0.1333,-0.1303,-0.1364,-0.1353,-0.1218,-0.1082,-0.0957,-0.0758,-0.0562,-0.0345,-0.0219,0.0032,0.0034,0.0169,0.0216,0.0271,0.0278,0.0434,0.0448,0.0172,0.017,0.0169,0.0168,0,-0.1038,-0.1058,-0.1221,-0.1337,-0.1381,-0.1514,-0.152,-0.1479,-0.1371,-0.1163,-0.1106,-0.0773,-0.0479,-0.0295,-0.0028,0.0074,0.0327,0.0325,0.0372,0.042,0.0571,0.0571,0.0744,0.0836,0.0479,0.0481,0.0482,0,-0.1075,-0.1153,-0.1384,-0.1471,-0.1543,-0.1671,-0.1659,-0.16,-0.1457,-0.109,-0.092,-0.0607,-0.0234,0.0102,0.0229,0.0404,0.0466,0.0577,0.0547,0.0599,0.0635,0.0613,0.0676,0.0695,0.0698,0.0701,0.0703,0,-0.1216,-0.1308,-0.1478,-0.1614,-0.1692,-0.1695,-0.1652,-0.1547,-0.1282,-0.1032,-0.0535,-0.0228,0.0107,0.0415,0.0543,0.0631,0.0644,0.0633,0.0702,0.0823,0.08,0.0905,0.0557,0.0725,0.0723,0.0721,0.072,0.0719,-0.1362,-0.1532,-0.1691,-0.1795,-0.177,-0.1556,-0.1453,-0.1238,-0.0931,-0.0357,-0.019,0.0359,0.0613,0.0833,0.084,0.0892,0.0844,0.0982,0.0984,0.0959,0.1029,0.0709,0.0908,0.0907,0.0906,0.0905,0.0905,0,-0.157,-0.1676,-0.1795,-0.1807,-0.1567,-0.1565,-0.126,-0.0984,-0.0481,-0.0058,0.0413,0.096,0.1166,0.1227,0.1242,0.1271,0.1248,0.1297,0.1304,0.136,0.1117,0.1106,0.1341,0.1341,0.1341,0.1341,0.134,0.134,-0.1675,-0.1875,-0.188,-0.1541,-0.1388,-0.096,-0.0695,-0.0326,0.0034,0.0752,0.1189,0.1464,0.1628,0.1558,0.1544,0.1528,0.1613,0.1581,0.1613,0.1444,0.1414,0.1386,0.138,0.1668,0.1668,0.1896,0.1898,0.1899]}],[{"header":{"parameterUnit":"m.s-1","parameterCategory":2,"la1":30.2991,"la2":30.254,"lo1":-89.0895,"lo2":-89.0444,"dy":0.0017,"dx":0.0017,"nx":28,"ny":28,"refTime":"2025-06-11T09:00:00:Z","depth":"2","parameterNumber":2,"parameterNumberName":"U-component_of_CURRENTS"},"data":[0,0,0,0,0,0,0,0,0,0,0,0,0,0,0,0,0,0,0,0,0,0,0,0,0,0,0,0,0,0,0,0,0,0,0,0,0,0,0,0,0,0,0,0,0,0,0,0,0,0,0,0,0,0,0,0,0,0,-0.2284,-0.2285,0,-0.2247,-0.2246,-0.2245,-0.2243,-0.2245,-0.2246,-0.2247,-0.2311,-0.2312,-0.2313,0,0,0,0,0,0,0,0,0,0,0,0,0,-0.2238,-0.2239,-0.2284,-0.2285,-0.2285,-0.2248,-0.2246,-0.2245,-0.2243,-0.2245,-0.2246,-0.2247,-0.2311,-0.2312,-0.2313,0,0,0,0,0,0,0,0,0,0,0,0,0,-0.2228,-0.2239,-0.2284,-0.2285,-0.2286,-0.2248,-0.2246,-0.2245,-0.2243,-0.2245,-0.2246,-0.2248,-0.2311,-0.2312,-0.2313,-0.2283,0,0,-0.2316,-0.2316,0,0,0,0,0,0,0,0,-0.2229,-0.2229,-0.2285,-0.2285,-0.2286,-0.2259,-0.2254,-0.2265,-0.2242,-0.225,-0.2247,-0.2249,-0.2307,-0.2309,-0.2285,-0.2286,-0.2289,-0.2316,-0.2316,-0.2317,-0.2317,0,0,0,0,0,0,0,-0.223,-0.223,-0.2261,-0.2285,-0.2286,-0.2249,-0.225,-0.2255,-0.2265,-0.225,-0.2252,-0.226,-0.2307,-0.2283,-0.2287,-0.229,-0.2316,-0.2316,-0.2317,-0.2317,-0.2231,-0.2229,0,0,0,0,0,0,-0.2255,-0.2231,-0.2263,-0.2261,-0.227,-0.225,-0.225,-0.2259,-0.2263,-0.2267,-0.2259,-0.226,-0.2281,-0.2285,-0.2289,-0.2281,-0.2317,-0.2317,-0.2318,-0.2234,-0.2231,-0.2228,0,0,0,0,0,0,-0.2254,-0.2258,-0.2264,-0.2251,-0.2251,-0.225,-0.2259,-0.2258,-0.2247,-0.227,-0.2274,-0.2253,-0.2283,-0.2288,-0.226,-0.2283,-0.2318,-0.2319,-0.2237,-0.2233,-0.2229,-0.2248,0,0,0,0,0,0,-0.2253,-0.2257,-0.2255,-0.2253,-0.2253,-0.225,-0.2259,-0.2256,-0.2253,-0.2254,-0.2266,-0.2273,-0.2284,-0.2258,-0.2261,-0.2285,-0.2319,-0.2241,-0.2235,-0.223,-0.2251,-0.2245,-0.224,0,0,0,0,0,-0.2251,-0.2243,-0.2255,-0.2259,-0.2256,-0.225,-0.2245,-0.2244,-0.2251,-0.224,-0.2219,-0.2273,-0.2227,-0.2255,-0.226,-0.2285,-0.2244,-0.2237,-0.2231,-0.2253,-0.2246,-0.224,0,0,0,0,0,0,-0.2213,-0.2242,-0.2256,-0.2256,-0.2261,-0.2253,-0.2236,-0.2244,-0.2215,-0.2216,-0.2232,-0.2235,-0.2223,-0.2224,-0.2255,-0.2232,-0.2247,-0.2241,-0.2262,-0.2255,-0.225,-0.2274,-0.232,0,0,0,0,0,-0.2208,-0.2212,-0.2236,-0.2232,-0.2236,-0.2236,-0.223,-0.2237,-0.2224,-0.2213,-0.2219,-0.2208,-0.2193,-0.2201,-0.2186,-0.2175,-0.2169,-0.2187,-0.2182,-0.2177,-0.2191,-0.2179,-0.2176,-0.2207,-0.2207,-0.2207,0,0,-0.2192,-0.2208,-0.2209,-0.2224,-0.2221,-0.2222,-0.2234,-0.2229,-0.2229,-0.2226,-0.2207,-0.2192,-0.2178,-0.216,-0.2157,-0.2173,-0.2153,-0.2169,-0.2167,-0.2183,-0.2172,-0.217,-0.2168,-0.2202,-0.2203,-0.2204,0,0,-0.2159,-0.2177,-0.2171,-0.218,-0.2194,-0.22,-0.2206,-0.2208,-0.2207,-0.2185,-0.2175,-0.216,-0.2146,-0.2139,-0.2134,-0.2082,-0.2118,-0.2082,-0.2095,-0.2082,-0.2082,-0.2081,-0.2036,-0.2032,-0.2089,-0.2089,-0.2089,0,-0.2137,-0.2145,-0.2164,-0.2163,-0.2173,-0.2197,-0.2197,-0.2192,-0.2182,-0.218,-0.2184,-0.2139,-0.214,-0.2121,-0.21,-0.2083,-0.2063,-0.2137,-0.2083,-0.2082,-0.2081,-0.2036,-0.2031,-0.2089,-0.2089,-0.2089,-0.2089,0,-0.2108,-0.2116,-0.211,-0.2129,-0.2136,-0.2138,-0.2161,-0.2161,-0.2171,-0.2174,-0.2158,-0.2131,-0.2116,-0.211,-0.2097,-0.2087,-0.2068,-0.2077,-0.212,-0.2081,-0.2032,-0.2027,-0.2089,-0.2089,-0.2089,-0.2089,0,0,-0.2054,-0.2086,-0.2084,-0.2098,-0.2126,-0.2131,-0.2136,-0.2151,-0.2159,-0.2152,-0.2153,-0.2124,-0.2126,-0.2115,-0.2103,-0.2097,-0.2065,-0.209,-0.2089,-0.208,-0.2012,-0.1895,-0.1878,-0.2075,-0.2075,-0.2074,-0.197,0,-0.2027,-0.2029,-0.2054,-0.206,-0.2069,-0.2105,-0.2112,-0.2129,-0.2142,-0.2144,-0.214,-0.2127,-0.2125,-0.2119,-0.2113,-0.2079,-0.2055,-0.209,-0.2021,-0.2018,-0.195,-0.187,-0.1747,-0.1635,-0.1965,-0.1964,-0.1963,0,-0.1987,-0.2003,-0.2006,-0.2049,-0.2056,-0.2064,-0.2098,-0.2109,-0.2126,-0.2136,-0.2138,-0.2135,-0.2118,-0.2123,-0.2069,-0.2092,-0.2051,-0.2026,-0.2022,-0.1912,-0.1892,-0.1728,-0.1613,-0.1954,-0.1955,-0.1956,-0.1956,0,-0.1941,-0.1969,-0.1976,-0.1988,-0.2034,-0.2044,-0.207,-0.2098,-0.2106,-0.2129,-0.2128,-0.2126,-0.2101,-0.2081,-0.2021,-0.2051,-0.1948,-0.1982,-0.1832,-0.1823,-0.1702,-0.1682,-0.1937,-0.1937,-0.1938,-0.1938,-0.1938,0,-0.1902,-0.1905,-0.1956,-0.1959,-0.1969,-0.2019,-0.2029,-0.2057,-0.2086,-0.2082,-0.2115,-0.21,-0.2092,-0.2035,-0.2007,-0.1876,-0.193,-0.1813,-0.1785,-0.1695,-0.1677,-0.1956,-0.1959,-0.1934,-0.1935,-0.1935,-0.1936,0,-0.1834,-0.187,-0.1878,-0.1929,-0.1943,-0.1947,-0.1992,-0.1998,-0.2042,-0.2035,-0.2039,-0.2053,-0.1973,-0.1927,-0.1862,-0.1817,-0.1739,-0.1677,-0.1549,-0.1508,-0.1629,-0.1634,-0.1515,-0.151,-0.1505,-0.1502,-0.1499,0,-0.1797,-0.1795,-0.1835,-0.1837,-0.1855,-0.1877,-0.1888,-0.1954,-0.1958,-0.1997,-0.1976,-0.1921,-0.1862,-0.1706,-0.1588,-0.1465,-0.1573,-0.1305,-0.1343,-0.1598,-0.1585,-0.1597,-0.1607,-0.1178,-0.1172,-0.1168,-0.1164,0,-0.172,-0.1733,-0.1739,-0.1738,-0.1748,-0.176,-0.1783,-0.1782,-0.185,-0.1854,-0.1849,-0.1821,-0.1657,-0.1465,-0.1279,-0.1212,-0.1322,-0.1209,-0.1498,-0.1303,-0.1272,-0.1262,-0.1285,-0.1125,-0.1129,-0.1132,-0.1134,-0.1136,-0.1648,-0.1627,-0.1627,-0.1614,-0.1632,-0.1617,-0.1586,-0.1617,-0.1607,-0.1579,-0.1663,-0.1563,-0.1506,-0.1144,-0.1022,-0.0888,-0.0999,-0.0984,-0.1002,-0.1023,-0.1002,-0.0965,-0.0755,-0.0756,-0.0758,-0.0759,-0.076,0,-0.1542,-0.1519,-0.1503,-0.1481,-0.1436,-0.1507,-0.1489,-0.1425,-0.137,-0.1375,-0.1358,-0.1176,-0.1014,-0.0931,-0.0655,-0.059,-0.0625,-0.0572,-0.0648,-0.0685,-0.0718,-0.0687,-0.0353,-0.0352,-0.0351,-0.0351,0,0,-0.1483,-0.1414,-0.1394,-0.1272,-0.1277,-0.1193,-0.1163,-0.1094,-0.1044,-0.096,-0.0914,-0.0992,-0.0948,-0.0698,-0.0595,-0.0434,-0.0568,-0.0394,-0.0717,-0.0846,-0.0879,-0.094,-0.0931,0,0,0,0,0]},{"header":{"parameterUnit":"m.s-1","parameterCategory":2,"la1":30.2991,"la2":30.254,"lo1":-89.0895,"lo2":-89.0444,"dy":0.0017,"dx":0.0017,"nx":28,"ny":28,"refTime":"2025-06-11T09:00:00:Z","depth":"2","parameterNumber":3,"parameterNumberName":"V-component_of_CURRENTS"},"data":[0,0,0,0,0,0,0,0,0,0,0,0,0,0,0,0,0,0,0,0,0,0,0,0,0,0,0,0,0,0,0,0,0,0,0,0,0,0,0,0,0,0,0,0,0,0,0,0,0,0,0,0,0,0,0,0,0,0,-0.0524,-0.0523,0,-0.0429,-0.0428,-0.0427,-0.0384,-0.0384,-0.0384,-0.0384,-0.0195,-0.019,-0.0186,0,0,0,0,0,0,0,0,0,0,0,0,0,-0.0575,-0.0575,-0.0524,-0.0523,-0.0521,-0.043,-0.0428,-0.0427,-0.0384,-0.0384,-0.0384,-0.0384,-0.0197,-0.0191,-0.0185,0,0,0,0,0,0,0,0,0,0,0,0,0,-0.0526,-0.0575,-0.0524,-0.0488,-0.0483,-0.043,-0.0428,-0.0427,-0.0384,-0.0384,-0.0384,-0.0384,-0.0199,-0.0192,-0.0184,-0.014,0,0,-0.0161,-0.0158,0,0,0,0,0,0,0,0,-0.0529,-0.0524,-0.0494,-0.049,-0.0485,-0.0417,-0.0377,-0.0326,-0.0384,-0.0423,-0.0384,-0.0384,-0.026,-0.0247,-0.0233,-0.0131,-0.0123,-0.0161,-0.0156,-0.0153,-0.0151,0,0,0,0,0,0,0,-0.0532,-0.0527,-0.0488,-0.0493,-0.0487,-0.0444,-0.0438,-0.0367,-0.0342,-0.042,-0.0416,-0.0403,-0.0257,-0.0241,-0.0228,-0.012,-0.0161,-0.0154,-0.015,-0.0147,-0.0001,-0.0001,0,0,0,0,0,0,-0.0546,-0.0531,-0.0491,-0.0485,-0.0506,-0.0444,-0.0437,-0.044,-0.0345,-0.0331,-0.0403,-0.0401,-0.0253,-0.0237,-0.0221,-0.0163,-0.0153,-0.0146,-0.0142,-0.0,-0.0001,-0.0002,0,0,0,0,0,0,-0.0548,-0.0544,-0.0495,-0.0504,-0.0494,-0.0444,-0.0447,-0.0438,-0.0422,-0.0333,-0.0318,-0.0396,-0.0253,-0.0232,-0.0176,-0.0155,-0.0143,-0.0136,0.0,-0.0001,-0.0001,-0.0046,0,0,0,0,0,0,-0.055,-0.0546,-0.0555,-0.0505,-0.0494,-0.0469,-0.0447,-0.0436,-0.0413,-0.041,-0.0321,-0.0304,-0.0251,-0.0188,-0.0169,-0.0145,-0.013,0.0001,-0.0,-0.0001,-0.0044,-0.0049,-0.0052,0,0,0,0,0,-0.0553,-0.0568,-0.0557,-0.0551,-0.0509,-0.0468,-0.0459,-0.0423,-0.0413,-0.0408,-0.036,-0.0307,-0.0181,-0.0182,-0.016,-0.0133,0.0002,0.0,-0.0001,-0.0042,-0.0048,-0.0052,0,0,0,0,0,0,-0.059,-0.0563,-0.055,-0.0555,-0.0516,-0.0461,-0.0454,-0.0427,-0.0386,-0.0385,-0.0308,-0.0287,-0.0231,-0.0186,-0.0189,-0.01,-0.0083,-0.008,-0.0122,-0.0126,-0.013,-0.0146,-0.0124,0,0,0,0,0,-0.0605,-0.0612,-0.0567,-0.0569,-0.0556,-0.0506,-0.0486,-0.0461,-0.0415,-0.0398,-0.0336,-0.0277,-0.0219,-0.0178,-0.0124,-0.0066,-0.0028,-0.004,-0.0044,-0.0048,-0.0049,0.001,0.0011,-0.0006,-0.0006,-0.0006,0,0,-0.0616,-0.0603,-0.0605,-0.0577,-0.0548,-0.0529,-0.0495,-0.047,-0.0448,-0.038,-0.0337,-0.0285,-0.0211,-0.0157,-0.0126,-0.0112,-0.0025,-0.005,-0.0053,-0.0052,0.0009,0.0011,0.0013,-0.0007,-0.0007,-0.0007,0,0,-0.0638,-0.0635,-0.0644,-0.0621,-0.0583,-0.0551,-0.0546,-0.0493,-0.0467,-0.042,-0.0371,-0.0316,-0.0225,-0.0167,-0.0126,-0.012,-0.0054,-0.0103,-0.0121,-0.0064,-0.0061,-0.0059,-0.0013,-0.0006,-0.0098,-0.0099,-0.0099,0,-0.0651,-0.066,-0.0636,-0.0634,-0.0617,-0.0565,-0.0559,-0.0521,-0.0455,-0.0427,-0.0416,-0.0294,-0.0228,-0.0152,-0.0155,-0.0124,-0.0092,-0.0103,-0.0068,-0.0064,-0.0061,-0.0014,-0.0006,-0.0101,-0.0101,-0.01,-0.01,0,-0.0673,-0.0679,-0.0681,-0.0666,-0.0644,-0.0632,-0.0578,-0.0549,-0.0512,-0.0465,-0.0395,-0.0319,-0.0247,-0.0214,-0.0177,-0.0117,-0.0103,-0.0084,-0.0053,-0.0061,-0.0012,-0.0003,-0.0104,-0.0103,-0.0103,-0.0102,0,0,-0.0701,-0.07,-0.0699,-0.0698,-0.0664,-0.0644,-0.0613,-0.056,-0.053,-0.0467,-0.0424,-0.0328,-0.0291,-0.0245,-0.0186,-0.0131,-0.0075,-0.0103,-0.0099,-0.0055,0.0041,0.0056,0.0068,-0.0051,-0.005,-0.0049,0.0064,0,-0.072,-0.074,-0.0725,-0.0722,-0.0725,-0.0677,-0.0647,-0.0593,-0.0538,-0.0482,-0.04,-0.0335,-0.03,-0.0262,-0.0207,-0.0105,-0.0052,-0.0108,0.004,0.0044,0.0062,0.0079,0.006,0.0158,0.0073,0.0075,0.0076,0,-0.0741,-0.0754,-0.0773,-0.0755,-0.0749,-0.0736,-0.0682,-0.0646,-0.0558,-0.0515,-0.0449,-0.0382,-0.029,-0.0266,-0.011,-0.015,-0.0067,0.0009,0.0015,0.0052,0.0077,0.0155,0.018,0.0093,0.0092,0.009,0.0089,0,-0.0777,-0.0779,-0.0802,-0.0799,-0.0772,-0.0762,-0.0735,-0.0659,-0.0622,-0.0536,-0.0498,-0.0394,-0.0326,-0.0221,-0.0078,-0.009,0.0091,0.0099,0.0191,0.0193,0.0218,0.022,0.0205,0.0205,0.0204,0.0204,0.0204,0,-0.0808,-0.0818,-0.0824,-0.0835,-0.0836,-0.0802,-0.0776,-0.073,-0.0662,-0.062,-0.0524,-0.0459,-0.031,-0.019,-0.0082,0.0084,0.009,0.0194,0.0228,0.02,0.0199,0.0173,0.0168,0.0208,0.0207,0.0207,0.0206,0,-0.0839,-0.0849,-0.0868,-0.0862,-0.0859,-0.0858,-0.0815,-0.0793,-0.0721,-0.0668,-0.0643,-0.0492,-0.033,-0.018,0.0018,0.0096,0.0245,0.0301,0.0251,0.0276,0.0307,0.0298,0.0414,0.0415,0.0417,0.0418,0.0419,0,-0.0856,-0.0878,-0.0896,-0.0913,-0.0914,-0.0906,-0.0899,-0.0835,-0.0811,-0.0682,-0.0662,-0.0486,-0.0353,-0.0063,0.0114,0.031,0.0306,0.0395,0.0372,0.0309,0.0331,0.032,0.0309,0.0389,0.039,0.039,0.0391,0,-0.0877,-0.0891,-0.0908,-0.096,-0.0974,-0.0976,-0.0963,-0.0952,-0.0875,-0.0799,-0.0669,-0.0545,-0.0258,-0.0025,0.022,0.0327,0.0356,0.0411,0.0386,0.0328,0.0293,0.0311,0.0301,0.0395,0.0395,0.0394,0.0394,0.0394,-0.088,-0.0909,-0.0951,-0.0994,-0.1026,-0.1057,-0.1048,-0.1014,-0.096,-0.0831,-0.071,-0.0478,-0.0267,0.0115,0.0273,0.0431,0.0432,0.0464,0.046,0.0457,0.0423,0.0391,0.0505,0.0505,0.0505,0.0505,0.0505,0,-0.0881,-0.0927,-0.0981,-0.1046,-0.1098,-0.1104,-0.1096,-0.1053,-0.0988,-0.0818,-0.0664,-0.0391,-0.0131,0.0108,0.0365,0.0492,0.0474,0.0507,0.0457,0.0452,0.0448,0.0411,0.0492,0.0493,0.0493,0.0493,0,0,-0.0887,-0.0945,-0.0993,-0.1096,-0.1147,-0.1183,-0.1176,-0.1084,-0.0941,-0.0741,-0.0544,-0.0355,-0.007,0.0089,0.025,0.0393,0.0386,0.0401,0.04,0.0318,0.0312,0.0416,0.0354,0,0,0,0,0]}],[{"header":{"parameterUnit":"m.s-1","parameterCategory":2,"la1":30.2991,"la2":30.254,"lo1":-89.0895,"lo2":-89.0444,"dy":0.0017,"dx":0.0017,"nx":28,"ny":28,"refTime":"2025-06-11T09:00:00:Z","depth":"4","parameterNumber":2,"parameterNumberName":"U-component_of_CURRENTS"},"data":[0,0,0,0,0,0,0,0,0,0,0,0,0,0,0,0,0,0,0,0,0,0,0,0,0,0,0,0,0,0,0,0,0,0,0,0,0,0,0,0,0,0,0,0,0,0,0,0,0,0,0,0,0,0,0,0,0,0,-0.1654,-0.1654,0,-0.1639,-0.1638,-0.1638,-0.165,-0.1651,-0.1652,-0.1653,-0.1657,-0.1657,-0.1656,0,0,0,0,0,0,0,0,0,0,0,0,0,-0.1594,-0.1595,-0.1654,-0.1654,-0.1655,-0.1639,-0.1638,-0.1638,-0.165,-0.1651,-0.1652,-0.1653,-0.1658,-0.1657,-0.1656,0,0,0,0,0,0,0,0,0,0,0,0,0,-0.1599,-0.1595,-0.1654,-0.1663,-0.1664,-0.1639,-0.1638,-0.1637,-0.165,-0.1651,-0.1653,-0.1654,-0.1658,-0.1657,-0.1656,-0.1619,0,0,-0.1652,-0.1651,0,0,0,0,0,0,0,0,-0.1599,-0.16,-0.1661,-0.1662,-0.1663,-0.1652,-0.1619,-0.1634,-0.1649,-0.165,-0.1653,-0.1655,-0.166,-0.1658,-0.1645,-0.1619,-0.1619,-0.1652,-0.1651,-0.1651,-0.165,0,0,0,0,0,0,0,-0.1598,-0.1601,-0.1643,-0.1661,-0.1663,-0.1633,-0.1636,-0.1621,-0.1643,-0.165,-0.1652,-0.1658,-0.166,-0.1646,-0.1645,-0.1619,-0.1652,-0.1651,-0.165,-0.165,-0.1635,-0.1635,0,0,0,0,0,0,-0.1614,-0.1601,-0.1644,-0.1643,-0.1639,-0.1634,-0.1636,-0.165,-0.1643,-0.1645,-0.1656,-0.1658,-0.1647,-0.1647,-0.1646,-0.1681,-0.1651,-0.1649,-0.1649,-0.1634,-0.1635,-0.1635,0,0,0,0,0,0,-0.1613,-0.1618,-0.1644,-0.1625,-0.1627,-0.1635,-0.1649,-0.1649,-0.1666,-0.1649,-0.165,-0.1677,-0.1648,-0.1647,-0.1657,-0.1679,-0.1649,-0.1648,-0.1634,-0.1634,-0.1635,-0.1701,0,0,0,0,0,0,-0.1611,-0.1618,-0.1637,-0.1626,-0.1629,-0.1651,-0.1648,-0.1648,-0.1668,-0.1671,-0.1666,-0.1666,-0.1649,-0.1659,-0.1655,-0.1676,-0.1647,-0.1633,-0.1634,-0.1635,-0.1699,-0.1704,-0.1709,0,0,0,0,0,-0.1609,-0.1621,-0.1638,-0.1644,-0.1654,-0.1652,-0.165,-0.1656,-0.1668,-0.1675,-0.1675,-0.1668,-0.166,-0.1658,-0.1654,-0.1675,-0.1633,-0.1634,-0.1635,-0.1697,-0.1703,-0.1709,0,0,0,0,0,0,-0.1597,-0.1624,-0.1642,-0.1662,-0.1672,-0.1657,-0.1663,-0.1671,-0.1674,-0.1685,-0.167,-0.167,-0.1687,-0.1666,-0.1664,-0.1671,-0.1646,-0.1646,-0.1694,-0.17,-0.1705,-0.1702,-0.1646,0,0,0,0,0,-0.1608,-0.1629,-0.1645,-0.1662,-0.1672,-0.1675,-0.1678,-0.1687,-0.1686,-0.169,-0.1689,-0.1683,-0.1679,-0.1681,-0.167,-0.1671,-0.1641,-0.1681,-0.1686,-0.1691,-0.1685,-0.1672,-0.1675,-0.1637,-0.1637,-0.1637,0,0,-0.1608,-0.1625,-0.1638,-0.1663,-0.1669,-0.1679,-0.168,-0.1695,-0.1707,-0.1689,-0.1707,-0.1704,-0.1683,-0.1689,-0.1694,-0.1681,-0.1682,-0.1692,-0.1696,-0.1687,-0.1673,-0.1677,-0.168,-0.1638,-0.1638,-0.1638,0,0,-0.1602,-0.1637,-0.1651,-0.1665,-0.169,-0.1694,-0.1709,-0.1717,-0.173,-0.1745,-0.1737,-0.1748,-0.1739,-0.1729,-0.1721,-0.1743,-0.1711,-0.1745,-0.1768,-0.1756,-0.1759,-0.1762,-0.1716,-0.1714,-0.1746,-0.1746,-0.1746,0,-0.1604,-0.1627,-0.1651,-0.1665,-0.168,-0.1707,-0.172,-0.1731,-0.1743,-0.1751,-0.1764,-0.176,-0.1754,-0.1753,-0.1765,-0.1756,-0.1732,-0.1752,-0.1764,-0.1765,-0.1767,-0.1719,-0.1716,-0.1749,-0.1749,-0.1749,-0.1748,0,-0.1599,-0.163,-0.1637,-0.1672,-0.1688,-0.1705,-0.1732,-0.1755,-0.1782,-0.1789,-0.1813,-0.1806,-0.1801,-0.1809,-0.1796,-0.1803,-0.1776,-0.1776,-0.1752,-0.1775,-0.1723,-0.1718,-0.1754,-0.1753,-0.1752,-0.1751,0,0,-0.1569,-0.1625,-0.1632,-0.1655,-0.1699,-0.1708,-0.1742,-0.1768,-0.1789,-0.1817,-0.1831,-0.1842,-0.1848,-0.1839,-0.1832,-0.1828,-0.1821,-0.1812,-0.181,-0.1772,-0.1771,-0.1641,-0.1622,-0.1831,-0.1831,-0.1831,-0.1726,0,-0.1561,-0.1591,-0.1622,-0.1656,-0.1674,-0.1718,-0.1741,-0.1773,-0.1803,-0.1823,-0.1839,-0.185,-0.1857,-0.1862,-0.1863,-0.1831,-0.1814,-0.1847,-0.1749,-0.1745,-0.1632,-0.1615,-0.1831,-0.1723,-0.1722,-0.1721,-0.172,0,-0.1541,-0.1569,-0.1602,-0.1656,-0.1669,-0.1694,-0.1744,-0.1769,-0.1806,-0.1829,-0.1853,-0.1861,-0.1863,-0.187,-0.1829,-0.1852,-0.1813,-0.179,-0.1785,-0.1635,-0.1606,-0.1697,-0.1711,-0.1712,-0.1713,-0.1713,-0.1714,0,-0.1496,-0.1552,-0.1582,-0.1601,-0.1664,-0.169,-0.1724,-0.177,-0.1787,-0.1831,-0.184,-0.1856,-0.1847,-0.1831,-0.1785,-0.181,-0.1721,-0.1746,-0.1586,-0.1575,-0.1698,-0.1697,-0.1707,-0.1707,-0.1707,-0.1707,-0.1708,0,-0.1462,-0.1489,-0.1569,-0.1583,-0.1612,-0.167,-0.17,-0.1737,-0.1781,-0.178,-0.1836,-0.1825,-0.1841,-0.1796,-0.177,-0.164,-0.1702,-0.1569,-0.1538,-0.1725,-0.1729,-0.1694,-0.1694,-0.1703,-0.1704,-0.1705,-0.1706,0,-0.1398,-0.1457,-0.149,-0.1567,-0.159,-0.1609,-0.1673,-0.1683,-0.1745,-0.1743,-0.1755,-0.1784,-0.1716,-0.1693,-0.1636,-0.1583,-0.1502,-0.1442,-0.1608,-0.1592,-0.137,-0.1375,-0.1254,-0.1248,-0.1243,-0.124,-0.1236,0,-0.1363,-0.138,-0.146,-0.1472,-0.1508,-0.1551,-0.1566,-0.1646,-0.1648,-0.1699,-0.1672,-0.1643,-0.1637,-0.1436,-0.145,-0.1346,-0.1338,-0.1291,-0.1365,-0.134,-0.1323,-0.1335,-0.1346,-0.1229,-0.1228,-0.1226,-0.1225,0,-0.1291,-0.1334,-0.1358,-0.1375,-0.1401,-0.1419,-0.1452,-0.1444,-0.1514,-0.1595,-0.1535,-0.1491,-0.1393,-0.1338,-0.1241,-0.1193,-0.1328,-0.1242,-0.1253,-0.1323,-0.1309,-0.1299,-0.1315,-0.1209,-0.1211,-0.1213,-0.1214,0,-0.1232,-0.1222,-0.125,-0.1246,-0.1273,-0.1248,-0.1299,-0.1291,-0.1308,-0.1383,-0.1361,-0.1342,-0.1376,-0.1254,-0.1185,-0.1098,-0.1095,-0.1085,-0.1104,-0.1122,-0.1126,-0.1093,-0.0877,0,0,0,0,0,-0.1159,-0.1119,-0.1111,-0.1089,-0.1111,-0.1119,-0.1187,-0.1245,-0.1329,-0.1244,-0.1299,-0.1214,-0.1116,-0.1122,-0.0995,-0.1101,-0.1083,-0.0952,-0.108,-0.1119,-0.1138,-0.1155,0,0,0,0,0,0,-0.1103,-0.1091,-0.1059,-0.0945,-0.0906,-0.0906,-0.0947,-0.1024,-0.0991,-0.1095,-0.104,-0.1129,-0.1037,-0.1137,-0.096,-0.0955,-0.101,-0.0958,-0.0954,-0.1108,-0.1125,-0.114,-0.1165,0,0,0,0,0]},{"header":{"parameterUnit":"m.s-1","parameterCategory":2,"la1":30.2991,"la2":30.254,"lo1":-89.0895,"lo2":-89.0444,"dy":0.0017,"dx":0.0017,"nx":28,"ny":28,"refTime":"2025-06-11T09:00:00:Z","depth":"4","parameterNumber":3,"parameterNumberName":"V-component_of_CURRENTS"},"data":[0,0,0,0,0,0,0,0,0,0,0,0,0,0,0,0,0,0,0,0,0,0,0,0,0,0,0,0,0,0,0,0,0,0,0,0,0,0,0,0,0,0,0,0,0,0,0,0,0,0,0,0,0,0,0,0,0,0,-0.0384,-0.0384,0,-0.0333,-0.0333,-0.0332,-0.0317,-0.0317,-0.0317,-0.0318,-0.0242,-0.024,-0.0238,0,0,0,0,0,0,0,0,0,0,0,0,0,-0.0409,-0.0409,-0.0385,-0.0384,-0.0383,-0.0333,-0.0333,-0.0332,-0.0317,-0.0317,-0.0318,-0.0318,-0.0243,-0.024,-0.0238,0,0,0,0,0,0,0,0,0,0,0,0,0,-0.0383,-0.0409,-0.0385,-0.0369,-0.0367,-0.0334,-0.0333,-0.0332,-0.0317,-0.0317,-0.0318,-0.0318,-0.0244,-0.0241,-0.0237,-0.0211,0,0,-0.0227,-0.0226,0,0,0,0,0,0,0,0,-0.0385,-0.0382,-0.0372,-0.037,-0.0368,-0.0331,-0.0314,-0.029,-0.0317,-0.0337,-0.0318,-0.0318,-0.0269,-0.0264,-0.0255,-0.0207,-0.0204,-0.0227,-0.0225,-0.0223,-0.0223,0,0,0,0,0,0,0,-0.0387,-0.0384,-0.0365,-0.0371,-0.0369,-0.0344,-0.0341,-0.0309,-0.0302,-0.0335,-0.0334,-0.0327,-0.0268,-0.0258,-0.0253,-0.0203,-0.0227,-0.0224,-0.0222,-0.0221,-0.0131,-0.0131,0,0,0,0,0,0,-0.0395,-0.0386,-0.0367,-0.0363,-0.0376,-0.0344,-0.0341,-0.0343,-0.0303,-0.0297,-0.0327,-0.0326,-0.0263,-0.0257,-0.025,-0.021,-0.0223,-0.022,-0.0218,-0.0131,-0.0131,-0.013,0,0,0,0,0,0,-0.0395,-0.0394,-0.0369,-0.0372,-0.0367,-0.0343,-0.0346,-0.0342,-0.0338,-0.0296,-0.029,-0.0328,-0.0263,-0.0255,-0.0224,-0.0207,-0.0219,-0.0216,-0.0132,-0.0131,-0.0131,-0.0133,0,0,0,0,0,0,-0.0397,-0.0395,-0.0405,-0.0373,-0.0368,-0.0355,-0.0346,-0.0341,-0.0333,-0.0332,-0.0295,-0.0288,-0.0263,-0.0229,-0.0221,-0.0203,-0.0213,-0.0132,-0.0132,-0.0131,-0.0133,-0.0132,-0.0132,0,0,0,0,0,-0.0398,-0.0412,-0.0406,-0.0404,-0.0382,-0.0355,-0.035,-0.0334,-0.0333,-0.0332,-0.0305,-0.0289,-0.0218,-0.0226,-0.0216,-0.0197,-0.0133,-0.0132,-0.0131,-0.0134,-0.0133,-0.0132,0,0,0,0,0,0,-0.0426,-0.041,-0.0404,-0.0413,-0.0388,-0.0353,-0.0354,-0.0339,-0.0317,-0.032,-0.0282,-0.0273,-0.024,-0.0221,-0.0231,-0.017,-0.0173,-0.017,-0.0179,-0.0177,-0.0177,-0.0189,-0.0211,0,0,0,0,0,-0.0437,-0.0446,-0.0417,-0.0423,-0.0416,-0.0386,-0.0376,-0.0362,-0.0335,-0.0327,-0.0297,-0.0265,-0.0226,-0.0207,-0.0177,-0.0142,-0.0123,-0.0124,-0.0124,-0.0123,-0.0127,-0.0078,-0.0073,-0.0127,-0.0127,-0.0127,0,0,-0.0448,-0.0441,-0.0446,-0.043,-0.0414,-0.04,-0.0382,-0.037,-0.0352,-0.032,-0.0295,-0.0263,-0.0219,-0.018,-0.0163,-0.0162,-0.0099,-0.0122,-0.0121,-0.0126,-0.0077,-0.0071,-0.0066,-0.0127,-0.0127,-0.0127,0,0,-0.0466,-0.047,-0.0479,-0.0464,-0.0443,-0.0419,-0.0418,-0.0385,-0.0368,-0.0338,-0.0305,-0.0262,-0.0218,-0.017,-0.0142,-0.0119,-0.0099,-0.0114,-0.0113,-0.0065,-0.006,-0.0056,-0.0031,-0.0024,-0.011,-0.011,-0.011,0,-0.048,-0.0486,-0.0475,-0.0474,-0.0461,-0.043,-0.0423,-0.0398,-0.0356,-0.0333,-0.0336,-0.0247,-0.0208,-0.0139,-0.0131,-0.0114,-0.0099,-0.0119,-0.0064,-0.0059,-0.0054,-0.0029,-0.0022,-0.011,-0.011,-0.011,-0.011,0,-0.0495,-0.05,-0.0504,-0.0493,-0.0477,-0.0468,-0.0429,-0.0409,-0.0387,-0.0352,-0.0296,-0.0241,-0.0188,-0.0162,-0.0138,-0.0078,-0.0083,-0.007,-0.0067,-0.0048,-0.0024,-0.0016,-0.011,-0.011,-0.011,-0.011,0,0,-0.0518,-0.0516,-0.0517,-0.0512,-0.0487,-0.047,-0.0444,-0.0399,-0.0375,-0.0333,-0.0294,-0.0215,-0.019,-0.0158,-0.0114,-0.0067,-0.0014,-0.0061,-0.0058,-0.0038,0.0072,0.0055,0.0062,0.0005,0.0006,0.0008,0.0073,0,-0.0528,-0.0537,-0.0527,-0.0517,-0.0512,-0.0479,-0.0453,-0.041,-0.0372,-0.033,-0.0262,-0.0215,-0.0186,-0.0161,-0.0108,-0.004,0.0007,-0.0034,0.0052,0.0054,0.0037,0.0071,0.0012,0.0079,0.0081,0.0082,0.0083,0,-0.054,-0.0542,-0.0548,-0.0524,-0.0518,-0.0509,-0.0462,-0.0434,-0.0367,-0.0339,-0.0283,-0.0238,-0.0158,-0.0145,-0.0023,-0.0056,0.0004,0.0055,0.0059,0.0048,0.0053,0.0059,0.0098,0.0096,0.0095,0.0094,0.0093,0,-0.0553,-0.0549,-0.0556,-0.0551,-0.0524,-0.0517,-0.0497,-0.044,-0.0419,-0.035,-0.0334,-0.0237,-0.0196,-0.0107,-0.0009,-0.0016,0.0113,0.0123,0.0166,0.0165,0.016,0.0154,0.0212,0.0212,0.0212,0.0212,0.0211,0,-0.0559,-0.0563,-0.0569,-0.0571,-0.0569,-0.0541,-0.0528,-0.0491,-0.045,-0.0431,-0.0349,-0.0314,-0.0186,-0.0101,-0.0013,0.0094,0.0114,0.017,0.0188,0.0155,0.0149,0.0165,0.0159,0.0214,0.0214,0.0213,0.0213,0,-0.0567,-0.0577,-0.0585,-0.0579,-0.0582,-0.0581,-0.0571,-0.0563,-0.0515,-0.0494,-0.048,-0.0368,-0.0251,-0.0126,0.0028,0.0085,0.0195,0.0231,0.0173,0.0186,0.0212,0.0205,0.0283,0.0283,0.0283,0.0283,0.0283,0,-0.0567,-0.0578,-0.0603,-0.0627,-0.0633,-0.0636,-0.0646,-0.0606,-0.0601,-0.0529,-0.0524,-0.0404,-0.0322,-0.0115,0.0019,0.019,0.0214,0.0256,0.0249,0.0213,0.0223,0.0215,0.0208,0.0283,0.0283,0.0283,0.0283,0,-0.0561,-0.0587,-0.06,-0.0662,-0.0693,-0.071,-0.0721,-0.072,-0.0678,-0.064,-0.055,-0.043,-0.0292,-0.012,0.0017,0.0138,0.022,0.0258,0.0258,0.0252,0.0215,0.0223,0.0215,0.0284,0.0284,0.0284,0.0284,0,-0.0561,-0.0586,-0.0636,-0.0683,-0.0736,-0.0777,-0.0769,-0.0753,-0.073,-0.0648,-0.0619,-0.0452,-0.0345,-0.0146,-0.0023,0.0098,0.0127,0.0147,0.0154,0.0155,0.0099,0.0032,0.0066,0,0,0,0,0,-0.0551,-0.0598,-0.0654,-0.0714,-0.0774,-0.0801,-0.0819,-0.0805,-0.0768,-0.0716,-0.0663,-0.053,-0.0316,-0.0204,-0.0085,-0.0033,0.0133,0.0107,0.0156,0.0286,0.0285,0.0241,0,0,0,0,0,0,-0.0554,-0.0608,-0.0654,-0.0738,-0.0786,-0.0844,-0.0856,-0.0831,-0.0782,-0.0724,-0.0595,-0.052,-0.0297,-0.0382,-0.0086,-0.0046,-0.0006,0.022,0.0222,0.0286,0.0286,0.0285,0.0239,0,0,0,0,0]}]]